This is the latest recevied weather packets stored in our database for station/object M9XDX-WX. If no packets are shown the sender has not sent any weather packets the latest 10 day(s).
| Time | Temp. | Humidity | Pressure | Rain* | Wind** | Luminosity | Snow |
|---|---|---|---|---|---|---|---|
| 1777857738 | 12.22° C | 93% | 1010.8 hPa | 0 mm | - | 0 W/m² | - |
| 1777855941 | 12.22° C | 93% | 1010.8 hPa | 0 mm | - | 0 W/m² | - |
| 1777853403 | 12.22° C | 94% | 1010.9 hPa | 0 mm | - | 0 W/m² | - |
| 1777851003 | 12.78° C | 94% | 1010.9 hPa | 0 mm | - | 0 W/m² | - |
| 1777848603 | 12.78° C | 92% | 1010.7 hPa | 0 mm | - | 0 W/m² | - |
| 1777840803 | 12.78° C | 88% | 1009.9 hPa | 0 mm | - | 0 W/m² | - |
| 1777837803 | 13.33° C | 89% | 1009.2 hPa | 0 mm | - | 0 W/m² | - |
| 1777837203 | 13.89° C | 88% | 1009.1 hPa | 0 mm | - | 2 W/m² | - |
| 1777834803 | 14.44° C | 86% | 1008.7 hPa | 1.27 mm | - | 12 W/m² | - |
| 1777831203 | 15.56° C | 80% | 1008.4 hPa | 0.76 mm | - | 100 W/m² | - |
| 1777818003 | 19.44° C | 57% | 1008.2 hPa | 0 mm | - | 495 W/m² | - |
| 1777817403 | 18.89° C | 58% | 1008 hPa | 0 mm | - | 587 W/m² | - |
| 1777815140 | 18.89° C | 60% | 1008.2 hPa | 0 mm | - | 802 W/m² | - |
| 1777813337 | 18.33° C | 62% | 1008.3 hPa | 0 mm | - | 910 W/m² | - |
| 1777811403 | 18.33° C | 61% | 1008.6 hPa | 0 mm | - | 565 W/m² | - |
| 1777810803 | 18.33° C | 61% | 1008.6 hPa | 0 mm | - | 653 W/m² | - |
| 1777806603 | 17.22° C | 65% | 1008.8 hPa | 0 mm | - | 1068 W/m² | - |
| 1777804803 | 16.67° C | 68% | 1009 hPa | 0 mm | - | 868 W/m² | - |
| 1777802539 | 16.11° C | 71% | 1008.7 hPa | 0 mm | - | 761 W/m² | - |
| 1777800603 | 15° C | 77% | 1009.1 hPa | 0 mm | - | 292 W/m² | - |
| 1777795939 | 12.78° C | 86% | 1009.1 hPa | 0 mm | - | 304 W/m² | - |
| 1777795203 | 12.22° C | 89% | 1009 hPa | 0 mm | - | 264 W/m² | - |
| 1777794003 | 13.33° C | 88% | 1008.6 hPa | 0 mm | - | 198 W/m² | - |
| 1777771203 | 10.56° C | 96% | 1009.1 hPa | 0 mm | - | 0 W/m² | - |
| 1777767140 | 10.56° C | 96% | 1009.1 hPa | 0 mm | - | 0 W/m² | - |
* Rain latest hour (hover to see other rain measurements)
** Current wind speed in m/s (hover to see current wind gust speed)